#timestamp,LO_Frequency,Hit,StdDev 
1547668815.1,286047000.8,N
1547668835.9,286046998.9,N
1547668855.7,286046996.6,N
1547668875.5,286046998.2,N
1547668895.4,286047000.7,N
1547668915.2,286047000.3,N
1547668935.1,286046999.0,N
1547668936.0,286046999.0,N
1547668955.8,286047000.0,N
1547668975.6,286047002.6,N
1547668995.5,286047001.8,N
1547669015.3,286047000.2,N
1547669035.2,286046999.7,N
1547669055.0,286047002.7,N
1547669055.9,286047002.7,N
1547669075.7,286047000.8,N
1547669095.6,286046999.7,N
1547669115.4,286047001.0,N
1547669135.3,286046998.7,N
1547669155.1,286047000.5,N
1547669175.8,286047000.0,N
1547669195.7,286046998.9,N
1547669215.5,286046998.2,N
1547669235.4,286046999.3,N
1547669255.2,286046999.4,N
1547669275.0,286046999.9,N
1547669275.9,286046999.9,N
1547669295.8,286047000.4,N
1547669315.6,286046998.5,N
1547669335.5,286046998.1,N
1547669355.3,286047001.2,N
1547669375.1,286046999.9,N
1547669395.9,286046999.8,N
1547669415.7,286047001.5,N
1547669435.5,286046999.8,N
1547669455.4,286047002.5,N
1547669475.2,286047000.4,N
1547669495.1,286047000.7,N
1547669496.0,286047000.7,N
1547669515.8,286047000.5,N
1547669535.6,286047000.7,N
1547669555.5,286046998.9,N
1547669575.3,286046998.9,N
1547669595.2,286046998.9,N
1547669615.9,286047000.1,N
1547669635.7,286047002.6,N
1547669655.6,286047002.3,N
1547669675.4,286047002.2,N
1547669695.2,286047002.2,N
1547669715.1,286046999.9,N
1547669716.0,286046999.9,N
1547669735.8,286047000.4,N
1547669755.7,286047002.4,N
1547669775.5,286047002.7,N
1547669795.3,286047004.4,Y
1547669815.2,286047002.4,P
1547669835.0,286047001.0,N
1547669835.9,286047001.0,N
1547669855.8,286047001.0,N
1547669875.6,286046998.7,N
1547669895.4,286046998.1,N
1547669915.3,286046998.6,N
1547669935.1,286046998.3,N
1547669985.9,286047000.7,E
1547669995.8,286046999.1,N
1547670015.6,286046997.1,P
1547670035.5,286046997.2,N
1547670055.3,286046999.1,N
1547670075.1,286046999.0,N
1547670095.9,286047000.5,N
1547670115.7,286046999.9,N
1547670135.6,286047001.1,N
1547670155.4,286047000.4,N
1547670175.2,286047000.3,N
1547670195.1,286047001.0,N
1547670196.0,286047001.0,N
1547670215.8,286046998.1,N
1547670235.7,286046998.8,N
1547670255.5,286046997.4,N
1547670275.3,286046997.6,N
1547670295.2,286046999.2,N
1547670315.9,286047000.3,N
1547670335.7,286047000.2,N
1547670355.6,286047000.3,N
1547670375.4,286047000.9,N
1547670395.3,286046999.8,N
1547670415.1,286047001.1,N
1547670416.0,286047001.1,N
1547670435.8,286046999.0,N
1547670455.7,286046996.7,N
1547670475.5,286046999.2,N
1547670495.4,286046998.2,N
1547670515.2,286046998.6,N
1547670535.0,286046998.3,N
1547670535.9,286046998.3,N
1547670555.8,286046996.9,N
1547670575.6,286046999.3,N
1547670595.5,286047000.9,N
1547670615.3,286046999.9,N
1547670635.1,286047000.6,N
1547670655.9,286047000.9,N
1547670675.7,286046999.3,N
1547670695.6,286046999.2,N
1547670715.4,286046999.3,N
1547670735.2,286046996.5,N
1547670755.1,286046998.1,N
1547670756.0,286046998.1,N
1547670775.8,286046998.4,N
1547670795.6,286046998.1,N
1547670815.5,286046998.7,N
1547670835.3,286046999.2,N
1547670855.1,286046999.4,N
1547670875.9,286046996.6,N
1547670895.7,286046999.3,N
1547670915.6,286046998.1,N
1547670935.4,286046998.3,N
1547670955.2,286046999.4,N
1547670975.1,286046998.9,N
1547670976.0,286046998.9,N
1547670995.8,286046999.1,N
1547671015.6,286047000.9,N
1547671035.5,286047000.3,N
1547671055.3,286047002.8,N
1547671075.2,286046999.9,N
1547671095.9,286047002.8,N
1547671115.7,286047000.4,N
1547671135.6,286047001.2,N
1547671155.4,286046999.2,N
1547671175.2,286046996.6,N
1547671195.1,286046998.3,N
1547671196.0,286046998.3,N
1547671215.8,286046999.1,N
1547671235.7,286046999.3,N
1547671255.1,286046998.8,N
1547671256.0,286046998.8,N
1547671275.8,286046996.9,N
1547671295.6,286046996.8,N
1547671315.5,286046999.6,N
1547671335.3,286046997.9,N
1547671355.1,286046998.0,N
1547671375.9,286046997.6,N
1547671395.7,286046997.0,N
1547671415.6,286046997.8,N
1547671435.4,286046996.8,N
1547671455.2,286046997.2,N
1547671475.1,286046999.2,N
1547671476.0,286046999.2,N
1547671495.8,286046998.1,N
1547671515.6,286046998.4,N
1547671535.5,286046999.3,N
1547671585.4,286046999.2,E
1547671595.3,286046998.3,N
1547671615.1,286046998.2,P
1547671635.9,286046998.5,P
1547671655.7,286046998.5,Y
1547671675.5,286046998.5,P
1547671695.4,286047000.2,N
1547671715.2,286047002.4,N
1547671735.0,286047004.2,N
1547671735.9,286047004.2,N
1547671755.8,286047002.3,N
1547671775.6,286047001.5,N
1547671795.5,286047004.4,N
1547671815.3,286047003.6,N
1547671835.1,286047002.0,N
1547671855.9,286047001.5,N
1547671875.7,286047003.3,N
1547671895.5,286047004.3,N
1547671915.4,286047001.5,N
1547671935.2,286047002.4,N
1547671955.1,286047001.7,N
1547671956.0,286047001.7,N
1547671975.8,286047002.3,N
1547671995.6,286047004.3,N
1547672015.5,286047001.9,N
1547672035.3,286046999.8,N
1547672055.1,286047000.2,N
1547672075.9,286047002.8,N
1547672095.7,286047000.5,N
1547672115.6,286047001.2,N
1547672135.4,286047000.9,N
1547672155.2,286047001.0,N
1547672175.1,286047002.3,N
1547672176.0,286047002.3,N
1547672195.8,286047001.5,N
1547672215.6,286047001.9,N
1547672235.5,286046999.9,N
1547672255.3,286047000.9,N
1547672275.2,286047002.2,N
1547672295.9,286047002.0,N
1547672315.7,286047002.4,N
1547672335.6,286046999.8,N
1547672355.4,286047002.6,N
1547672375.2,286047001.5,N
1547672395.1,286047002.2,N
1547672396.0,286047002.2,N
